Palma De Mallorca, Spain

6:53 AM CEST on August 26, 2016 (GMT +0200)
Palma De Mallorca

Weather History for LEPA - January, 2013

Change the Weather History Date:

Wednesday, January 9, 2013

  Actual Average Record
Temperature  
Mean Temperature 48 °F -  
Max Temperature 59 °F 57 °F 66 °F (2016)
Min Temperature 37 °F 39 °F 32 °F (2015)
Degree Days  
Heating Degree Days 17    
Moisture  
Dew Point 44 °F    
Average Humidity 88    
Maximum Humidity 100    
Minimum Humidity 56    
Precipitation  
Precipitation 0.00 in 0.05 in - ()
Sea Level Pressure  
Sea Level Pressure 30.21 in    
Wind  
Wind Speed 3 mph ()    
Max Wind Speed 16 mph    
Max Gust Speed -    
Visibility 3.5 miles    
Events Fog    
Averages and records for this station are not official NWS values.
T = Trace of Precipitation, MM = Missing Value Source: Averaged Metar Reports

Daily Weather History Graph

Daily Weather History Graph

Search for Another Location

Airport or City:

Trip Planner

Search our weather history database for the weather conditions in past years. The results will help you decide how hot, cold, wet, or windy it might be!

Date:

Astronomy

Jan. 09, 2013 Rise Set
Actual Time 8:09 AM CET 5:43 PM CET
Civil Twilight 7:39 AM CET 6:13 PM CET
Nautical Twilight 7:06 AM CET 6:46 PM CET
Astronomical Twilight 6:33 AM CET 7:18 PM CET
Moon 5:32 AM CET (1/9) 3:28 PM CET (1/9)
Length of Visible Light 10h 33m
Length of Day
9h 33m
Waning Crescent, 8% of the Moon is Illuminated
Jan 9
Waning Crescent
Jan 11
New
Jan 19
First Quarter
Jan 27
Full
Feb 3
Last Quarter

Hourly Weather History & Observations

Time (CET) Temp. Dew Point Humidity Pressure Visibility Wind Dir Wind Speed Gust Speed Precip Events Conditions
12:00 AM 41.0 °F 41.0 °F 100% 30.30 in 0.2 mi Variable 1.2 mph - N/A Fog Fog
12:30 AM 41.0 °F 41.0 °F 100% 30.27 in 0.1 mi NE 1.2 mph - N/A Fog Fog
1:00 AM 39 °F 38 °F 95% 30.29 in 0 mi Calm Calm - - Fog Partial Fog
1:00 AM 41.0 °F 39.2 °F 93% 30.27 in 0.1 mi Calm Calm - N/A Fog Fog
1:30 AM 41.0 °F 41.0 °F 100% 30.27 in 0.1 mi Calm Calm - N/A Fog Fog
2:30 AM 42.8 °F 42.8 °F 100% 30.24 in 0.1 mi Calm Calm - N/A Fog Fog
3:00 AM 42.8 °F 42.8 °F 100% 30.24 in 0.1 mi Calm Calm - N/A Fog Fog
3:30 AM 41.0 °F 41.0 °F 100% 30.27 in 0.1 mi Calm Calm - N/A Fog Fog
4:00 AM 41.0 °F 41.0 °F 100% 30.24 in 0.1 mi Calm Calm - N/A Fog Fog
4:30 AM 41.0 °F 41.0 °F 100% 30.24 in 0.1 mi Calm Calm - N/A Fog Fog
5:00 AM 42.8 °F 41.0 °F 93% 30.24 in 0.1 mi Calm Calm - N/A Fog Fog
5:30 AM 41.0 °F 41.0 °F 100% 30.24 in 0.1 mi Calm Calm - N/A Fog Fog
6:00 AM 41.0 °F 41.0 °F 100% 30.21 in 0.1 mi Calm Calm - N/A Fog Fog
6:30 AM 41.0 °F 41.0 °F 100% 30.24 in 0.1 mi Calm Calm - N/A Fog Fog
7:00 AM 40 °F 39 °F 97% 30.25 in 0 mi Calm Calm - - Fog Partial Fog
7:00 AM 41.0 °F 41.0 °F 100% 30.24 in 0.1 mi Calm Calm - N/A Fog Fog
7:30 AM 39.2 °F 39.2 °F 100% 30.24 in 0.1 mi Calm Calm - N/A Fog Fog
8:00 AM 39.2 °F 39.2 °F 100% 30.24 in 0.0 mi Calm Calm - N/A Fog Fog
8:30 AM 37.4 °F 37.4 °F 100% 30.24 in 0.0 mi Calm Calm - N/A Fog Fog
9:00 AM 37.4 °F 37.4 °F 100% 30.24 in 0.0 mi Calm Calm - N/A Fog Fog
9:30 AM 39.2 °F 39.2 °F 100% 30.24 in 0.1 mi Calm Calm - N/A Fog Fog
9:35 AM 41.0 °F 41.0 °F 100% 30.24 in 0.5 mi Calm Calm - N/A Fog Fog
9:41 AM 41.0 °F 41.0 °F 100% 30.24 in 1.2 mi Calm Calm - N/A   Partly Cloudy
9:47 AM 42.8 °F 42.8 °F 100% 30.24 in 2.2 mi Calm Calm - N/A   Partly Cloudy
10:00 AM 44.6 °F 44.6 °F 100% 30.24 in 2.8 mi Calm Calm - N/A   Partly Cloudy
10:09 AM 46.4 °F 46.4 °F 100% 30.24 in 4.3 mi Calm Calm - N/A   Partly Cloudy
10:30 AM 48.2 °F 48.2 °F 100% 30.24 in 5.6 mi Calm Calm - N/A   Partly Cloudy
11:00 AM 51.8 °F 51.8 °F 100% 30.24 in 5.6 mi Calm Calm - N/A   Partly Cloudy
11:30 AM 57.2 °F 53.6 °F 88% 30.24 in 6.2 mi WSW 5.8 mph - N/A   Partly Cloudy
12:00 PM 57.2 °F 51.8 °F 82% 30.24 in 6.2 mi WSW 11.5 mph - N/A   Partly Cloudy
12:30 PM 59.0 °F 50.0 °F 72% 30.24 in 6.2 mi WSW 11.5 mph - N/A   Partly Cloudy
1:00 PM 58 °F 46 °F 56% 30.23 in 12 mi WSW 16.1 mph - -   Partly Cloudy
1:00 PM 59.0 °F 50.0 °F 72% 30.21 in 6.2 mi WSW 13.8 mph - N/A   Partly Cloudy
1:30 PM 59.0 °F 50.0 °F 72% 30.21 in 6.2 mi SW 12.7 mph - N/A   Partly Cloudy
2:00 PM 59.0 °F 48.2 °F 67% 30.18 in 6.2 mi SW 12.7 mph - N/A   Partly Cloudy
2:30 PM 59.0 °F 50.0 °F 72% 30.18 in 6.2 mi WSW 12.7 mph - N/A   Partly Cloudy
3:00 PM 59.0 °F 50.0 °F 72% 30.18 in 6.2 mi WSW 13.8 mph - N/A   Partly Cloudy
3:30 PM 57.2 °F 50.0 °F 77% 30.18 in 6.2 mi WSW 13.8 mph - N/A   Partly Cloudy
4:00 PM 55.4 °F 50.0 °F 82% 30.18 in 6.2 mi WSW 12.7 mph - N/A   Scattered Clouds
4:30 PM 55.4 °F 48.2 °F 77% 30.18 in 6.2 mi West 11.5 mph - N/A   Mostly Cloudy
5:00 PM 55.4 °F 48.2 °F 77% 30.18 in 6.2 mi WSW 10.4 mph - N/A   Mostly Cloudy
5:30 PM 55.4 °F 48.2 °F 77% 30.15 in 6.2 mi WSW 6.9 mph - N/A   Mostly Cloudy
6:00 PM 55.4 °F 48.2 °F 77% 30.15 in 6.2 mi West 8.1 mph - N/A   Mostly Cloudy
6:30 PM 55.4 °F 46.4 °F 72% 30.15 in 6.2 mi West 9.2 mph - N/A   Mostly Cloudy
7:00 PM 53.6 °F 46.4 °F 77% 30.18 in 6.2 mi West 9.2 mph - N/A   Mostly Cloudy
7:30 PM 53.6 °F 46.4 °F 77% 30.18 in 6.2 mi West 9.2 mph - N/A   Mostly Cloudy
8:00 PM 50.0 °F 44.6 °F 82% 30.18 in 6.2 mi West 5.8 mph - N/A   Scattered Clouds
8:30 PM 51.8 °F 44.6 °F 76% 30.15 in 6.2 mi West 5.8 mph - N/A   Partly Cloudy
9:00 PM 51.8 °F 44.6 °F 76% 30.15 in 6.2 mi West 8.1 mph - N/A   Partly Cloudy
9:30 PM 51.8 °F 44.6 °F 76% 30.15 in 6.2 mi West 10.4 mph - N/A   Partly Cloudy
10:00 PM 51.8 °F 42.8 °F 71% 30.15 in 6.2 mi WSW 9.2 mph - N/A   Partly Cloudy
10:30 PM 51.8 °F 42.8 °F 71% 30.15 in 6.2 mi WSW 11.5 mph - N/A   Partly Cloudy
11:00 PM 51.8 °F 44.6 °F 76% 30.15 in 6.2 mi WSW 12.7 mph - N/A   Partly Cloudy
11:30 PM 51.8 °F 44.6 °F 76% 30.15 in 6.2 mi WSW 10.4 mph - N/A   Partly Cloudy